TimeEDT,TemperatureF,Dew PointF,Humidity,Sea Level PressureIn,VisibilityMPH,Wind Direction,Wind SpeedMPH,Gust SpeedMPH,PrecipitationIn,Events,Conditions,WindDirDegrees,DateUTC
12:56 AM,73.9,66.0,76,29.89,10.0,WSW,6.9,-,N/A,,Clear,240,2013-05-24 04:56:00
1:56 AM,73.0,64.0,73,29.88,10.0,West,5.8,-,N/A,,Clear,260,2013-05-24 05:56:00
2:56 AM,73.0,61.0,66,29.88,10.0,West,9.2,-,N/A,,Clear,270,2013-05-24 06:56:00
3:56 AM,71.1,60.1,68,29.88,10.0,West,5.8,-,N/A,,Clear,270,2013-05-24 07:56:00
4:56 AM,70.0,57.9,65,29.88,10.0,WNW,6.9,-,N/A,,Clear,290,2013-05-24 08:56:00
5:56 AM,68.0,57.9,70,29.90,10.0,West,8.1,-,N/A,,Clear,280,2013-05-24 09:56:00
6:56 AM,68.0,57.0,68,29.92,10.0,WNW,5.8,-,N/A,,Clear,290,2013-05-24 10:56:00
7:56 AM,71.1,57.0,61,29.93,10.0,NW,5.8,-,N/A,,Clear,310,2013-05-24 11:56:00
8:56 AM,75.0,57.0,53,29.95,10.0,NNW,10.4,-,N/A,,Clear,330,2013-05-24 12:56:00
9:56 AM,78.1,57.0,48,29.96,10.0,North,8.1,-,N/A,,Clear,350,2013-05-24 13:56:00
10:56 AM,80.1,57.0,45,29.97,10.0,NNW,11.5,20.7,N/A,,Partly Cloudy,340,2013-05-24 14:56:00
11:56 AM,82.0,57.0,42,29.98,10.0,North,10.4,-,N/A,,Scattered Clouds,350,2013-05-24 15:56:00
12:56 PM,81.0,57.0,44,29.99,10.0,NW,15.0,20.7,N/A,,Scattered Clouds,320,2013-05-24 16:56:00
1:56 PM,84.0,57.9,41,29.99,10.0,NNW,12.7,23.0,N/A,,Scattered Clouds,330,2013-05-24 17:56:00
2:56 PM,82.9,55.0,38,30.00,10.0,North,15.0,19.6,N/A,,Scattered Clouds,350,2013-05-24 18:56:00
3:56 PM,81.0,55.0,41,30.00,10.0,NNW,16.1,-,N/A,,Scattered Clouds,330,2013-05-24 19:56:00
4:56 PM,84.0,55.0,37,30.00,10.0,North,15.0,23.0,N/A,,Scattered Clouds,360,2013-05-24 20:56:00
5:56 PM,82.9,51.1,33,30.01,10.0,NNW,16.1,26.5,N/A,,Scattered Clouds,340,2013-05-24 21:56:00
6:56 PM,80.1,41.0,25,30.03,10.0,North,17.3,25.3,N/A,,Partly Cloudy,360,2013-05-24 22:56:00
7:56 PM,75.0,36.0,24,30.08,10.0,NNW,16.1,23.0,N/A,,Clear,340,2013-05-24 23:56:00
8:56 PM,66.0,41.0,40,30.11,10.0,North,6.9,-,N/A,,Clear,350,2013-05-25 00:56:00
9:56 PM,69.1,43.0,39,30.13,10.0,North,9.2,-,N/A,,Clear,10,2013-05-25 01:56:00
10:56 PM,64.9,45.0,48,30.16,10.0,NNE,6.9,-,N/A,,Clear,20,2013-05-25 02:56:00
11:56 PM,63.0,45.0,52,30.18,10.0,NNE,6.9,-,N/A,,Clear,30,2013-05-25 03:56:00